Wind_Speed
44 44 44 43 42 42 43 43 44 45 45 46 46 46 47 47 48 49 49 49 48 48 49 49 49 49 49 50 51 51 52 52 52 53 53 53 53 54
43 44 45 45 45 44 44 44 44 46 47 46 47 48 48 49 49 49 49 49 49 48 49 50 49 49 50 51 52 52 52 53 53 54 54 55 55 55
43 44 45 45 45 44 44 44 44 46 48 48 49 50 50 49 49 49 49 49 49 50 50 50 49 50 51 52 53 53 53 54 54 55 56 56 57 57
43 43 43 44 45 45 45 45 45 46 48 48 49 49 49 50 50 50 50 50 51 51 52 51 51 52 53 53 54 54 55 55 55 57 57 58 58 59
43 44 44 44 46 47 47 47 47 47 48 49 49 49 50 50 50 51 52 52 52 52 53 53 53 54 54 55 55 55 56 56 57 58 59 60 60 61
44 44 44 45 46 46 47 48 48 48 49 49 50 51 51 51 52 52 53 53 52 53 54 54 55 55 55 56 56 57 58 59 59 60 60 61 61 61
45 45 46 46 47 48 48 49 50 49 50 51 51 53 53 53 53 53 54 53 53 55 55 54 55 55 56 56 57 58 59 60 60 61 61 62 62 62
47 47 48 49 49 49 49 50 51 51 52 53 53 53 53 53 54 54 54 54 54 54 55 54 55 55 56 56 57 59 60 61 62 62 62 62 63 63
47 48 48 49 50 50 49 50 51 51 51 52 52 52 53 53 54 54 54 55 54 54 55 55 55 56 57 58 58 59 60 61 61 61 62 62 62 62
47 48 49 49 49 50 50 51 51 52 52 52 52 53 53 54 54 54 54 54 54 55 56 56 56 57 57 58 59 59 60 60 60 61 62 62 62 61
47 48 49 49 49 50 50 51 52 53 52 52 52 52 52 52 53 54 54 54 54 54 56 57 57 57 57 58 58 59 60 60 60 60 60 61 60 59
47 47 48 48 49 49 49 50 51 52 52 52 51 51 51 51 52 52 53 54 54 54 55 56 57 58 58 57 57 58 58 58 59 59 58 58 57 57
45 45 46 47 48 48 49 49 49 50 50 50 50 50 50 50 51 52 53 54 54 54 55 56 57 57 57 56 56 57 57 57 57 57 56 56 56 55
44 45 45 46 46 46 47 47 48 48 48 48 48 49 50 50 51 51 53 54 54 55 56 56 56 56 56 56 56 56 56 56 55 54 54 53 54 54
44 44 44 45 45 45 46 47 47 47 47 48 48 48 49 50 51 52 53 54 55 55 55 55 55 55 56 55 55 54 54 53 53 53 52 51 51 51
43 43 44 44 45 45 46 46 46 46 47 47 48 48 49 51 52 53 53 53 53 53 54 54 54 54 53 53 53 53 52 51 51 51 50 50 50 49
43 43 44 44 44 44 44 45 46 46 47 48 49 49 50 51 51 51 51 51 51 51 51 51 51 51 51 51 51 51 50 49 49 49 48 48 47 47
42 42 43 43 43 43 43 44 45 46 48 49 49 50 50 49 49 49 49 49 48 49 49 49 50 49 49 49 49 48 48 47 46 45 45 44 43 43
40 41 41 41 41 41 42 43 44 45 46 47 47 46 46 47 47 47 47 46 46 47 47 48 48 48 47 46 45 45 45 44 43 42 41 41 40 40
38 39 39 39 39 40 40 40 41 42 43 43 43 43 44 44 44 44 45 45 45 45 45 45 45 45 44 43 42 42 42 41 40 39 39 39 38 38
37 37 37 37 37 37 38 39 40 40 40 40 40 40 41 41 41 42 42 43 43 42 42 42 42 42 41 40 39 38 39 38 38 37 37 37 37 37
36 36 36 36 35 36 36 36 36 36 36 37 37 37 38 38 38 39 39 39 39 39 39 39 38 38 37 37 37 36 36 36 37 37 37 37 36 35
33 33 33 33 33 32 32 32 33 33 34 34 35 35 36 35 36 36 36 35 35 35 35 35 34 34 34 34 34 34 35 35 36 35 35 35 33 32
Wind_Direction
255 255 256 256 256 257 257 257 257 256 256 258 259 260 261 262 264 267 267 267 268 269 269 270 272 275 276 277 278 280 280 281 282 282 283 284 284 284
254 255 256 256 257 258 258 258 257 257 257 258 260 261 263 263 264 266 266 266 268 269 270 272 273 275 277 278 279 280 281 281 282 282 283 283 284 284
255 256 256 257 258 258 258 258 258 258 258 259 261 262 263 265 265 266 267 268 268 270 272 273 274 276 277 278 279 280 281 281 282 283 283 283 284 284
255 255 256 258 258 257 257 258 259 260 260 261 263 263 264 265 266 266 267 268 269 270 271 272 274 276 277 278 280 280 281 282 282 283 283 283 284 284
254 255 257 258 258 258 259 259 261 262 264 264 264 265 265 266 267 268 268 270 269 270 272 273 274 275 277 279 280 280 281 282 283 284 284 284 285 285
256 257 258 258 258 259 260 261 263 265 265 266 266 266 266 267 268 270 271 271 271 271 272 274 274 276 278 279 280 281 282 282 283 284 285 285 285 286
258 259 260 259 259 261 262 263 264 265 266 266 267 267 268 268 269 270 271 271 272 273 273 274 275 277 278 279 280 281 282 283 284 284 284 285 285 286
261 261 261 262 262 264 264 264 265 265 266 267 268 270 269 269 269 270 270 270 272 273 274 275 276 278 279 280 281 282 283 283 284 284 284 285 285 285
262 262 262 263 265 264 263 264 265 266 267 268 269 269 269 269 269 269 270 271 273 274 274 276 278 280 281 281 281 282 283 283 284 284 285 285 285 284
263 263 263 264 265 264 264 265 266 267 267 268 269 270 270 269 270 270 271 272 273 274 275 277 278 279 281 281 282 282 283 283 284 285 285 285 284 284
264 264 264 264 265 265 266 266 267 267 267 268 269 270 270 270 271 271 271 272 273 275 276 278 279 280 281 282 282 283 283 284 285 285 285 285 285 285
265 265 266 266 266 266 267 268 267 267 268 268 269 270 270 271 271 272 272 273 274 275 277 278 279 280 281 282 282 283 284 285 285 285 286 285 285 285
267 267 267 266 266 266 267 267 268 268 268 268 269 270 271 271 272 273 274 274 276 277 278 279 280 281 282 282 283 284 284 284 285 285 285 285 284 285
268 267 267 267 266 266 267 268 268 267 268 269 270 270 271 272 272 273 274 275 276 278 279 279 280 281 283 284 284 284 284 285 285 285 284 284 285 286
269 269 268 267 268 267 267 267 267 267 268 269 270 271 272 272 273 274 275 276 277 278 279 279 280 282 283 284 284 284 284 284 285 285 285 285 286 286
270 270 269 269 270 269 268 267 267 267 268 270 271 272 272 273 274 275 276 277 277 278 278 279 281 282 283 284 284 284 284 285 285 285 286 286 286 286
270 270 270 270 270 269 268 268 268 268 269 270 271 272 274 275 275 276 277 278 277 278 279 280 282 283 283 284 284 283 284 286 287 286 286 286 286 286
270 270 271 270 269 269 269 269 269 269 270 271 271 273 274 275 275 277 278 278 278 278 279 280 282 282 283 284 284 285 285 286 287 287 286 286 285 285
270 271 271 270 270 270 270 270 270 270 271 272 273 275 275 276 277 278 278 278 278 279 280 281 281 282 283 283 284 284 286 286 286 286 286 287 287 286
271 271 271 271 270 271 271 271 272 273 274 274 275 276 276 277 277 277 277 278 279 280 280 281 281 282 283 283 283 284 284 286 286 286 286 287 287 286
272 271 271 271 271 271 272 273 273 274 274 275 276 278 277 277 277 278 278 279 279 280 280 280 281 282 282 283 283 283 284 285 286 287 287 287 288 288
272 272 271 271 271 272 273 273 274 274 275 276 277 279 278 278 278 279 279 280 280 280 280 281 282 282 283 283 283 283 284 285 286 288 289 290 290 289
273 272 272 272 272 272 272 274 274 275 277 278 280 280 279 279 280 280 280 280 280 281 281 282 282 283 284 285 285 285 285 285 287 289 291 291 291 290
Height
5687 5688 5690 5692 5694 5696 5697 5699 5701 5702 5704 5705 5706 5707 5707 5708 5708 5708 5709 5709 5709 5709 5709 5708 5707 5707 5706 5705 5703 5702 5700 5699 5697 5695 5693 5691 5689 5687
5675 5677 5680 5681 5683 5685 5686 5688 5689 5691 5692 5693 5694 5695 5695 5696 5696 5696 5696 5697 5697 5696 5696 5696 5695 5694 5693 5692 5690 5688 5687 5685 5684 5682 5680 5677 5675 5673
5664 5666 5668 5670 5672 5673 5675 5676 5677 5678 5680 5681 5681 5682 5683 5683 5684 5684 5684 5684 5684 5684 5683 5682 5682 5681 5680 5678 5677 5675 5673 5672 5670 5667 5665 5663 5660 5658
5653 5655 5656 5658 5659 5661 5663 5664 5665 5666 5667 5668 5669 5669 5670 5671 5671 5671 5671 5671 5671 5671 5670 5669 5669 5667 5666 5665 5663 5661 5659 5657 5655 5653 5650 5648 5645 5642
5642 5643 5645 5646 5648 5649 5650 5652 5653 5653 5654 5655 5656 5657 5657 5658 5658 5658 5658 5657 5657 5657 5656 5655 5654 5653 5652 5650 5648 5647 5644 5643 5640 5638 5635 5632 5629 5626
5631 5632 5633 5634 5635 5636 5638 5639 5639 5640 5641 5642 5643 5643 5644 5644 5643 5643 5643 5643 5643 5642 5641 5640 5639 5638 5637 5635 5634 5631 5629 5627 5624 5621 5618 5615 5612 5609
5619 5620 5621 5622 5623 5624 5625 5625 5626 5626 5627 5628 5629 5629 5630 5630 5629 5629 5628 5628 5628 5627 5626 5625 5624 5623 5621 5619 5617 5615 5613 5610 5607 5605 5602 5598 5595 5592
5608 5608 5609 5610 5610 5611 5611 5612 5612 5613 5613 5614 5614 5615 5615 5614 5614 5614 5613 5613 5613 5613 5611 5610 5608 5607 5605 5604 5601 5598 5596 5593 5590 5587 5584 5581 5577 5574
5595 5596 5596 5597 5597 5597 5598 5598 5598 5598 5599 5599 5599 5600 5600 5599 5599 5599 5598 5598 5598 5597 5595 5595 5593 5591 5589 5587 5584 5581 5578 5575 5572 5569 5566 5563 5559 5556
5582 5583 5583 5583 5583 5583 5584 5584 5584 5585 5585 5585 5585 5585 5584 5584 5584 5583 5583 5583 5582 5581 5579 5579 5577 5575 5573 5571 5568 5564 5561 5557 5554 5551 5548 5544 5541 5538
5570 5570 5569 5570 5570 5570 5570 5570 5570 5570 5570 5570 5570 5570 5570 5569 5568 5568 5568 5567 5567 5566 5564 5562 5561 5559 5557 5555 5551 5548 5544 5541 5537 5533 5529 5526 5523 5519
5557 5556 5556 5556 5556 5555 5555 5555 5556 5556 5555 5555 5555 5555 5555 5554 5554 5553 5553 5552 5551 5551 5548 5546 5545 5542 5541 5539 5535 5531 5527 5524 5520 5516 5512 5509 5505 5502
5543 5543 5543 5543 5542 5542 5541 5541 5541 5541 5541 5541 5541 5541 5541 5540 5539 5538 5538 5537 5535 5534 5533 5530 5528 5525 5523 5522 5520 5515 5511 5507 5504 5500 5496 5492 5489 5485
5530 5530 5530 5529 5528 5528 5528 5527 5527 5527 5527 5527 5527 5527 5527 5526 5525 5524 5522 5521 5520 5518 5516 5514 5512 5509 5507 5505 5503 5499 5495 5490 5487 5483 5480 5476 5473 5469
5517 5517 5516 5515 5515 5515 5514 5513 5513 5513 5513 5513 5513 5513 5512 5511 5510 5509 5507 5506 5504 5502 5500 5497 5495 5493 5490 5488 5486 5483 5479 5475 5471 5467 5464 5461 5457 5454
5504 5504 5503 5502 5501 5501 5500 5500 5499 5500 5499 5500 5499 5499 5498 5497 5496 5494 5492 5490 5489 5487 5484 5482 5479 5477 5475 5472 5469 5467 5463 5460 5456 5452 5449 5446 5442 5439
5491 5491 5490 5489 5488 5487 5487 5486 5486 5486 5486 5486 5485 5484 5483 5482 5480 5478 5477 5475 5473 5472 5469 5467 5465 5462 5460 5457 5455 5451 5448 5445 5441 5438 5435 5432 5429 5425
5478 5478 5477 5476 5475 5474 5474 5473 5473 5472 5472 5471 5470 5470 5468 5467 5465 5464 5462 5460 5459 5457 5455 5453 5450 5448 5446 5444 5441 5437 5434 5431 5428 5425 5421 5419 5416 5412
5466 5465 5464 5463 5462 5461 5461 5460 5459 5458 5457 5457 5456 5455 5453 5452 5451 5449 5448 5446 5445 5443 5441 5439 5437 5434 5433 5431 5429 5424 5420 5418 5415 5412 5409 5406 5404 5401
5454 5453 5452 5451 5450 5449 5448 5447 5446 5445 5444 5443 5442 5441 5440 5438 5437 5435 5434 5433 5431 5430 5428 5426 5423 5421 5419 5417 5415 5412 5408 5405 5403 5400 5398 5395 5392 5389
5442 5441 5440 5439 5438 5437 5436 5435 5434 5433 5432 5431 5430 5428 5427 5425 5424 5423 5422 5420 5418 5417 5415 5413 5411 5409 5406 5404 5403 5401 5397 5394 5391 5389 5386 5384 5381 5379
5431 5430 5428 5427 5426 5425 5425 5423 5422 5421 5420 5419 5418 5417 5415 5414 5413 5411 5410 5408 5406 5405 5403 5402 5399 5397 5395 5393 5391 5389 5387 5384 5381 5378 5376 5373 5370 5368
5420 5419 5417 5416 5415 5415 5414 5413 5412 5411 5410 5409 5407 5406 5404 5403 5401 5400 5398 5397 5396 5394 5392 5390 5388 5386 5384 5382 5380 5378 5376 5374 5371 5369 5366 5362 5360 5357